Terminal Aerodrome Forecast
Issued by NWS

Home | Current Version | Previous Version | Text Only | Print | Product List | Glossary On
Versions: 1 2 3 4 5 6 7 8 9 10 11 12
490
FTUS45 KRIW 262322
TAFCOD
TAF
KCOD 262322Z 2700/2724 13010KT P6SM SCT100
     FM270100 24010KT P6SM BKN150
     FM271100 25010G20KT P6SM SCT100 BKN150
     FM271600 25010G20KT P6SM VCSH SCT080 BKN150
     FM271900 28015G25KT P6SM VCTS SCT080CB BKN120
      AMD LTD TO CLD VIS AND WIND=

USA.gov is the U.S. government's official web portal to all federal, state and local government web resources and services.